Tracking 18840 objects as of 17-November-2017
HD Live streaming from Space Station
objects crossing your sky now

EKRAN 5

Track EKRAN 5 now!
EKRAN 5 is classified as:


NORAD ID: 11890
Int'l Code: 1980-060A
Perigee: 35,784.5 km
Apogee: 35,865.1 km
Inclination: 12.7 °
Period: 1,437.7 minutes
Semi major axis: 42195 km
RCS: Unknown
Launch date: July 15, 1980
Source: Commonwealth of Independent States (former USSR) (CIS)
Launch site: TYURATAM MISSILE AND SPACE COMPLEX (TTMTR)
aabbcc
Your satellite tracking list
Your tracking list is empty




NASA's NSSDC Master Catalog

Two Line Element Set (TLE):
1 11890U 80060A   17147.54276114 0.00000000  00000-0  00000-0 0    06
2 11890  12.7017 322.5555 0009553 118.5935 241.5400  1.00161124    02
Source of the keplerian elements: McCants